Change the Weather History Date:

Friday, September 27, 2013

  Actual Average Record
Temperature  
Mean Temperature 76 °F -  
Max Temperature 86 °F 64 °F 86 °F (2013)
Min Temperature 66 °F 44 °F 37 °F (2002)
Cooling Degree Days 11    
Growing Degree Days 26 (Base 50)    
Moisture  
Dew Point 60 °F    
Average Humidity 62    
Maximum Humidity 78    
Minimum Humidity 43    
Precipitation  
Precipitation 0.00 in - - ()
Sea Level Pressure  
Sea Level Pressure 29.85 in    
Wind  
Wind Speed 12 mph (SE)    
Max Wind Speed 25 mph    
Max Gust Speed 33 mph    
Visibility 10 miles    
Events      
Averages and records for this station are not official NWS values.
T = Trace of Precipitation, MM = Missing Value Source: NWS Daily Summary

Daily Weather History Graph

Daily Weather History Graph

Search for Another Location

Airport or City:

Trip Planner

Search our weather history database for the weather conditions in past years. The results will help you decide how hot, cold, wet, or windy it might be!

Date:

Astronomy

Sep. 27, 2013 Rise Set
Actual Time 7:07 AM CDT 7:01 PM CDT
Civil Twilight 6:38 AM CDT 7:30 PM CDT
Nautical Twilight 6:04 AM CDT 8:04 PM CDT
Astronomical Twilight 5:29 AM CDT 8:39 PM CDT
Moon No Moon Rise 2:53 PM CDT (9/27)
Length of Visible Light 12h 52m
Length of Day
11h 54m
Last Quarter, 45% of the Moon is Illuminated
Sep 27
Last Quarter
Oct 4
New
Oct 11
First Quarter
Oct 18
Full
Oct 26
Last Quarter

Hourly Weather History & Observations

Time (CDT) Temp. Heat Index Dew Point Humidity Pressure Visibility Wind Dir Wind Speed Gust Speed Precip Events Conditions
12:53 AM 68.0 °F - 60.1 °F 76% 29.89 in 10.0 mi SE 11.5 mph - N/A   Clear
1:53 AM 69.1 °F - 59.0 °F 70% 29.89 in 10.0 mi SE 12.7 mph - N/A   Clear
2:53 AM 68.0 °F - 59.0 °F 73% 29.89 in 10.0 mi SE 9.2 mph - N/A   Clear
3:53 AM 68.0 °F - 60.1 °F 76% 29.88 in 10.0 mi SE 10.4 mph - N/A   Clear
4:53 AM 68.0 °F - 60.1 °F 76% 29.88 in 10.0 mi SE 10.4 mph - N/A   Clear
5:53 AM 69.1 °F - 60.1 °F 73% 29.88 in 10.0 mi SE 9.2 mph - N/A   Clear
6:53 AM 66.0 °F - 59.0 °F 78% 29.90 in 10.0 mi SE 11.5 mph - N/A   Clear
7:53 AM 66.9 °F - 59.0 °F 76% 29.89 in 9.0 mi SE 10.4 mph - N/A   Mostly Cloudy
8:53 AM 68.0 °F - 60.1 °F 76% 29.90 in 10.0 mi SE 10.4 mph - N/A   Mostly Cloudy
9:53 AM 70.0 °F - 60.1 °F 71% 29.89 in 10.0 mi SE 8.1 mph - N/A   Mostly Cloudy
10:53 AM 73.9 °F - 61.0 °F 64% 29.88 in 10.0 mi SSE 11.5 mph - N/A   Partly Cloudy
11:53 AM 73.9 °F - 61.0 °F 64% 29.88 in 10.0 mi SSE 11.5 mph - 0.00 in   Mostly Cloudy
12:53 PM 75.0 °F - 62.1 °F 64% 29.83 in 10.0 mi ESE 9.2 mph - N/A   Mostly Cloudy
1:53 PM 82.9 °F 84.0 °F 63.0 °F 51% 29.81 in 10.0 mi SSE 21.9 mph 26.5 mph 0.00 in   Clear
2:53 PM 84.9 °F 85.0 °F 61.0 °F 44% 29.79 in 10.0 mi SSE 25.3 mph 33.4 mph N/A   Clear
3:53 PM 86.0 °F 86.1 °F 61.0 °F 43% 29.79 in 10.0 mi South 16.1 mph 26.5 mph N/A   Clear
4:53 PM 84.0 °F 84.5 °F 62.1 °F 47% 29.79 in 10.0 mi SSE 19.6 mph 28.8 mph N/A   Clear
5:53 PM 82.9 °F 83.2 °F 60.1 °F 46% 29.80 in 10.0 mi SSE 17.3 mph 24.2 mph N/A   Clear
6:53 PM 81.0 °F 81.3 °F 59.0 °F 47% 29.81 in 10.0 mi SSE 18.4 mph 24.2 mph N/A   Clear
7:53 PM 79.0 °F - 61.0 °F 54% 29.81 in 10.0 mi SE 11.5 mph 20.7 mph N/A   Clear
8:53 PM 78.1 °F - 61.0 °F 56% 29.81 in 10.0 mi SE 12.7 mph 20.7 mph N/A   Clear
9:53 PM 77.0 °F - 60.1 °F 56% 29.81 in 10.0 mi SSE 13.8 mph 25.3 mph N/A   Clear
10:53 PM 75.0 °F - 59.0 °F 57% 29.82 in 10.0 mi SSE 12.7 mph 20.7 mph N/A   Scattered Clouds
11:53 PM 73.0 °F - 59.0 °F 61% 29.80 in 10.0 mi SE 13.8 mph - N/A   Clear